Location: ????
(32.1228°N, 34.8377°E)
Time: 01:36:07
(UTC+00:00)

Cosmos 1707 Rocket - Pass Details

Date: 21 September 2020
Orbit: 606 x 630 km, 82.5° (Epoch: 21 October)

Event Time Altitude Azimuth Distance (km) Brightness Sun altitude
Exits shadow 02:20:27 22° 232° (SW) 1,325 4.7 -15.1°
Maximum altitude 02:22:30 34° 280° (W) 1,001 4.1 -14.7°
Drops below altitude 10° 02:26:27 10° 346° (NNW) 1,962 6.1 -13.9°
Sets 02:28:51 0° 356° (N) 2,872 7.1 -13.4°
